Location: Ocean City
(38.3360°N, 75.0850°W)
Time: 07:10:19
(UTC-05:00)

Transit 2A - All Passes

Search period start: 21 November 2019 00:00
Search period end: 01 December 2019 00:00
Orbit: 601 x 957 km, 66.7° (Epoch: 20 November)

Date Brightness Start Highest point End Pass type
(mag) Time Alt. Az. Time Alt. Az. Time Alt. Az.
21 Nov - 10:44:54 10° S 10:49:49 44° ESE 10:54:20 10° NE daylight
21 Nov - 12:29:16 10° WSW 12:33:05 22° NW 12:36:41 10° N daylight
21 Nov - 19:33:06 10° N 19:36:37 23° NE 19:40:13 10° ESE visible
21 Nov - 21:15:48 10° NW 21:19:45 33° WSW 21:23:53 10° S night (unlit)
22 Nov - 10:11:23 10° S 10:15:47 29° ESE 10:19:53 10° NE daylight
22 Nov - 11:54:22 10° WSW 11:58:51 31° NW 12:02:59 10° N daylight
22 Nov - 18:59:37 10° N 19:02:18 16° NE 19:05:04 10° E visible
22 Nov - 20:41:26 10° NW 20:45:42 53° WSW 20:50:13 10° S night (unlit)
23 Nov - 09:38:15 10° SSE 09:41:47 19° ESE 09:45:08 10° ENE daylight
23 Nov - 11:19:46 10° SW 11:24:39 46° WNW 11:29:09 10° NNE daylight
23 Nov - 18:26:52 10° NNE 18:27:56 11° NE 18:29:01 10° ENE visible
23 Nov - 20:07:14 10° NNW 20:11:38 86° WSW 20:16:16 10° SSE visible
24 Nov - 09:06:01 10° SE 09:07:50 12° ESE 09:09:36 10° E daylight
24 Nov - 10:45:24 10° SW 10:50:29 71° WNW 10:55:10 10° NNE daylight
24 Nov - 19:33:11 10° NNW 19:37:31 59° ENE 19:42:04 10° SE visible
24 Nov - 21:18:30 10° W 21:20:10 12° WSW 21:21:51 10° SW night (unlit)
25 Nov - 10:11:16 10° SSW 10:16:24 75° ESE 10:21:03 10° NNE daylight
25 Nov - 11:57:30 10° WNW 11:59:58 14° NW 12:02:20 10° NNW daylight
25 Nov - 18:59:15 10° NNW 19:03:21 38° ENE 19:07:37 10° SE visible
25 Nov - 20:43:03 10° WNW 20:46:13 19° WSW 20:49:29 10° SSW night (unlit)
26 Nov - 09:37:24 10° S 09:42:19 48° ESE 09:46:50 10° NE daylight
26 Nov - 11:22:04 10° W 11:25:38 20° NW 11:29:01 10° N daylight
26 Nov - 18:25:28 10° N 18:29:08 25° NE 18:32:55 10° ESE visible
26 Nov - 20:08:20 10° NW 20:12:13 30° WSW 20:16:17 10° S visible
27 Nov - 09:03:48 10° S 09:08:17 31° ESE 09:12:25 10° NE daylight
27 Nov - 10:47:05 10° WSW 10:51:22 28° NW 10:55:22 10° N daylight
27 Nov - 17:51:54 10° N 17:54:51 17° NE 17:57:51 10° E visible
27 Nov - 19:33:56 10° NW 19:38:11 48° WSW 19:42:41 10° S visible
28 Nov - 08:30:35 10° SSE 08:34:16 20° ESE 08:37:44 10° ENE daylight
28 Nov - 10:12:25 10° SW 10:17:10 42° WNW 10:21:33 10° NNE daylight
28 Nov - 17:18:51 10° NNE 17:20:30 12° NE 17:22:10 10° ENE visible
28 Nov - 18:59:42 10° NNW 19:04:06 78° WSW 19:08:47 10° SSE visible
29 Nov - 07:58:05 10° SE 08:00:18 13° ESE 08:02:26 10° E daylight
29 Nov - 09:38:00 10° SW 09:43:00 65° WNW 09:47:36 10° NNE daylight
29 Nov - 18:25:37 10° NNW 18:30:00 66° ENE 18:34:38 10° SE visible
29 Nov - 20:11:30 10° W 20:12:37 11° WSW 20:13:44 10° WSW visible
30 Nov - 09:03:49 10° SSW 09:08:54 82° ESE 09:13:32 10° NNE daylight
30 Nov - 10:50:29 10° WNW 10:52:31 12° NW 10:54:29 10° NNW daylight
30 Nov - 17:51:40 10° NNW 17:55:51 41° ENE 18:00:15 10° SE visible
30 Nov - 19:35:41 10° WNW 19:38:40 18° WSW 19:41:47 10° SSW visible
